STARLINK-4168, 52845

Orbit data source: Space-Track

STARLINK-4168, 52845 is a payload satellite owned by SpaceX/Seattle (US) in LEO that was launched on Fri, 17 Jun 2022 UTC via an FALCON 9 launch vehicle from the Air Force Eastern Test Range (AFETR). Payload-class satellites include a variety of spacecraft equipped with specific instruments for various scientific and technological missions. These include communications satellites like Starlink; space stations such as the ISS; scientific satellites like the Hubble; Earth observation satellites from companies like Planet Labs, Umbra, and HawkEye 360; GPS; miniature CubeSats for education and research; and military/defense satellites.

Loading next visibility...
Identifier
52845, 2022-062R
Orbit
LEO
Country
Flag of USUS
Related business
Manufacturer
SpaceX/Seattle
Mission
Operational Commercial Communications
Bus & Motor
STARLINK, Unknown motor
Mass
297 kg wet, ~275 kg dry
Launch date (UTC)
2022-06-17 (4 years ago)
Launch vehicle
FALCON 9
Launch site
Air Force Eastern Test Range (AFETR)
Object type
Payload
Rocket body
Debris
Shape & HBR
Box + 1 Pan, 10.1 m
Radar Cross Section
13.562 m², Large (>1 m²)

Expand to show TLE details & history
Last TLE update: 18 hours ago

TLE from 18 hours ago
0 STARLINK-4168
1 52845U 22062R   25349.86442453 -.00000327  00000-0 -24264-5 0  9992
2 52845  53.2179  50.4934 0001265 100.5276 259.5859 15.08844919193132
Epoch: 2025-12-15T20:44Z
TLE epoch observation values (Epoch: 2025-12-15T20:44:46.279Z)
Latitude
Longitude
14.5437°
Altitude
540.784 km
Speed
7.593 km/s
True Right ascension
03h 21m 58s
True Declination
0° 00' 00"
Sunlit
Object was in full shadow at epoch
Visualization orbit readout
Latitude
Unknown
Longitude
Unknown
Altitude
Unknown
Speed
Unknown
Apparent Right ascension
Unknown
Apparent Declination
Unknown
Sunlit
N/A
Visualization observer readout
Local Sidereal Time
13:40:23
Azimuth
Unknown
Elevation
Unknown
Doppler factor
Unknown
Orbital elements
Apogee altitude
540.848 km
Perigee altitude
539.098 km
Semi-major axis
6,918.11 km
Eccentricity
0.00013
Inclination
53.2179°
RAAN
50.4934°
Arg. of periapsis
100.5276°
True anomaly
259.57164°
Mean anomaly
259.5859°
Eccentric anomaly
259.57877°
Mean motion
3.77192 °/min
Orbital period
95.44 mins
BSTAR
-0.0000024264
Loading maneuver chart data...
Computing Atmospheric mass density...
Loading historical data...
Loading historical data...
Loading historical data...
Loading historical data...
Loading historical data...
Loading historical data...
Loading historical data...

Documentation

Showing up to 5 results
|